Regional Weather Roundup
Issued by NWS New Orleans/Baton Rouge, LA

Home | Current Version | Previous Version | Graphics & Text | Print | Product List | Glossary On
Versions: 1 2 3 4 5 6 7 8 9 10 11 12 13 14 15 16 17 18 19 20 21 22 23 24 25 26 27 28 29 30 31 32 33 34 35 36 37 38 39 40 41 42 43 44 45 46 47 48 49 50
673
ASUS44 KLIX 210910
RWRLIX
NEW ORLEANS REGIONAL WEATHER ROUNDUP
NATIONAL WEATHER SERVICE NEW ORLEANS LA
400 AM CDT SUN SEP 21 2014

NOTE: "FAIR" INDICATES FEW OR NO CLOUDS BELOW 12,000 FEET WITH NO
      SIGNIFICANT WEATHER AND/OR OBSTRUCTIONS TO VISIBILITY.
      SKY/WX - SKY CONDITION AND SIGNIFICANT WEATHER.
      TMP - AIR TEMPERATURE.     DP    - DEWPOINT TEMPERATURE.
      RH  - RELATIVE HUMIDITY.   PRES  - PRESSURE.
      HI  - HEAT INDEX.          WCI   - WIND CHILL INDEX.

*  THESE STATIONS ARE NOT NWS OR FAA STATIONS AND ARE NOT UNDER
   NWS QUALITY CONTROL.

LAZ038-040-048-061>063-065>067-069-211000-
SOUTHEAST LOUISIANA

CITY           SKY/WX    TMP DP  RH WIND       PRES   REMARKS
N.O. AUDUBON     N/A     76  70  84 MISG        N/A
N.O. INTL ARPT CLEAR     77  70  79 NE8       29.96S
N.O. LAKEFRONT CLEAR     77  70  79 E14       29.97S
N.O. DOWNTOWN*   N/A     75  66  73 NE5       29.97S
SLIDELL        CLEAR     70  66  87 NE3       29.97S
BATON ROUGE    CLEAR     70  68  93 CALM      29.99S
BOOTHVILLE     PTCLDY    80  72  76 NE6       29.95R
BELLE CHASSE   CLEAR     74  68  81 NE5       29.96S
BOGALUSA*        N/A     66  63  90 CALM      30.00S
GALLIANO*      NOT AVBL
NEW ROADS*       N/A     69  69  98 CALM      29.99S FOG
GONZALES*        N/A     70  70 100 CALM      29.98S FOG
HAMMOND*       CLEAR     70  66  88 N3        30.00S
HOUMA*         CLEAR     72  67  85 CALM      29.96S
PORT FOURCHON* SUNNY     79  72  78 NE10      29.98R

$$

MSZ070-080>082-211000-
SOUTHERN MISSISSIPPI

CITY           SKY/WX    TMP DP  RH WIND       PRES   REMARKS
MCCOMB         CLEAR     67  65  93 CALM      30.01S
GULFPORT       CLEAR     70  66  87 CALM      29.97F
BILOXI         CLEAR     71  66  84 NE8       29.98S
PASCAGOULA     PTCLDY    70  66  87 NE6       29.99R

$$

COASTAL OBSERVATIONS
LAKE AND NEARSHORE STATIONS

STATION/POSITION TIME  TEMP    WIND        PRES    WAVE
                       AIR SEA DIR/SP/G            HT/PER
                 (UTC) (F)     (DEG/KT/KT) (MB)    (FT/S)
PASCAGOULA       0900   73      30/  7/ 11 1014.8
WAVELAND YACHT   0900   73      70/ 10/ 12 1014.2
GRAND ISLE       0900   79 82   40/  6/  9 1014.8
SOUTHWEST PASS   0900   82 89   70/ 13/ 14 1013.9
NEW CANAL        0900   78 81   80/ 10/ 13 1015.1
SHELL BEACH      0900   78 78   40/ 14/ 16 1014.4

OFFSHORE STATIONS

STATION/POSITION TIME  TEMP    WIND        PRES    WAVE
                       AIR SEA DIR/SP/G            HT/PER
                 (UTC) (F)     (DEG/KT/KT) (MB)    (FT/S)
64 S DAUPHIN ISL 0826   81 84   90/ 12/ 16 1013.9    4/ 6

$$




USA.gov is the U.S. government's official web portal to all federal, state and local government web resources and services.